Location: Big Prairie
(40.6673°N, 82.0952°W)
Time: 19:01:40
(UTC+00:00)

USA 276 - Pass Details

Date: 02 July 2022
Orbit: 366 x 369 km, 50.0° (Epoch: 12 July)

Event Time Altitude Azimuth Distance (km) Brightness Sun altitude
Rises 04:34:14 0° 300° (WNW) 2,208 6.5 -24.9°
Reaches altitude 10° 04:36:58 10° 327° (NNW) 1,360 5.8 -25.0°
Maximum altitude 04:38:42 14° 2° (N) 1,142 5.3 -25.1°
Drops below altitude 10° 04:40:27 10° 37° (NE) 1,361 5.3 -25.2°
Enters shadow 04:41:45 - 53° (NE) 1,723 5.6 -25.2°
